STARLINK-2238 (48584 NORAD) Tracking and Keplerian Element Data

This shows tracking and keplerian element data for the satellite.

Feedback or suggestion? Click here.




ElementValue
Catalog48584
NameSTARLINK-2238
Epoch Orbit358
Epoch Day214.91667824
Epoch Year2021
RAAN122.4023
Inclination53.0531
Eccentricity0.0001936
Argument of Perigee80.2627
Mean Anonmoly13.6417
Mean Motion15.06413063
Decay Rate-0.00032313
L11 48584U 21041AH 21214.91667824 -.00032313 00000-0 -21594-2 0 9997
L22 48584 53.0531 122.4023 0001936 80.2627 13.6417 15.06413063 3583

Live tracking and technical data element details for STARLINK-2238 (NORAD 48584). STARLINK-2238 can be tracked NOW for your location showing map with azimuth and elevation plus other details from your city location.

Track the satellite on the map from your city or location and see movement details for azimuth, elevation, latitude, longitude, range, height, and movement on the map or in text.







IsCatalogInMostPopularTable: catalog: 48584, numindb: 20
Update: records affected: 1



GetName: 48584 STARLINK-2238

Hit Count: updated at: Wed, 04 Aug 2021 00:11:26 GMT